COSMOS 2491 DEB, 44987

Orbit data source: Space-Track

COSMOS 2491 DEB, 44987 is space debris in LEO originally from a launch on Wed, 25 Dec 2013 UTC launched from the Plesetsk Missile And Space Complex (PKMTR). Debris objects in space refer to the collection of defunct objects orbiting the Earth. Examples of debris include non-operational satellites, rocket bodies, and fragments generated from explosions, collisions, or faulty payload assembly.

Loading next visibility...
Identifier
44987, 2013-076H
Orbit
LEO
Country
Flag of CISCIS
Related business
Manufacturer
TsNIIKhM
Mission
Spacecraft
Bus & Motor
Unknown
Mass
Unknown
Launch date (UTC)
2013-12-25 (12 years ago)
Launch vehicle
Unknown
Launch site
Plesetsk Missile And Space Complex (PKMTR)
Object type
Payload
Rocket body
Debris
Shape & HBR
Unknown shape, 0.1 m
Radar Cross Section
Medium (>0.1 m² and <1 m²)

Expand to show TLE details & history
Last TLE update: 4 days ago

TLE from 4 days ago
0 COSMOS 2491 DEB
1 44987U 13076H   26169.48303896  .00001407  00000-0  64620-2 0  9996
2 44987  82.3965  93.0717 0171190  80.6776 281.3632 12.71882859298451
Epoch: 2026-06-18T11:35Z
TLE epoch observation values (Epoch: 2026-06-18T11:35:34.566Z)
Latitude
-0.00003°
Longitude
12.45195°
Altitude
1,353.061 km
Speed
7.193 km/s
True Right ascension
06h 12m 17s
True Declination
0° 00' 00"
Sunlit
Object was in daylight at epoch
Visualization orbit readout
Latitude
Unknown
Longitude
Unknown
Altitude
Unknown
Speed
Unknown
Apparent Right ascension
Unknown
Apparent Declination
Unknown
Sunlit
N/A
Visualization observer readout
Local Sidereal Time
21:36:53
Azimuth
Unknown
Elevation
Unknown
Doppler factor
Unknown
Orbital elements
Apogee altitude
1,504.26 km
Perigee altitude
1,238.925 km
Semi-major axis
7,749.729 km
Eccentricity
0.01712
Inclination
82.3965°
RAAN
93.0717°
Arg. of periapsis
80.6776°
True anomaly
279.43218°
Mean anomaly
281.3632°
Eccentric anomaly
280.39846°
Mean motion
3.18136 °/min
Orbital period
113.16 mins
BSTAR
0.006462
Loading maneuver chart data...
Computing Atmospheric mass density...
Loading historical data...
Loading historical data...
Loading historical data...
Loading historical data...
Loading historical data...
Loading historical data...
Loading historical data...

Documentation

Showing up to 5 results
|